Weather History for Baghdad, Iraq

Change the Weather History Date:

Saturday, January 19, 2013

  Actual Average Record
Temperature  
Mean Temperature 53 °F -  
Max Temperature 64 °F - - ()
Min Temperature 42 °F - - ()
Degree Days  
Heating Degree Days 12    
Growing Degree Days 3 (Base 50)    
Moisture  
Dew Point 37 °F    
Average Humidity 55    
Maximum Humidity 67    
Minimum Humidity 40    
Precipitation  
Precipitation 0.00 in - - ()
Sea Level Pressure  
Sea Level Pressure 30.14 in    
Wind  
Wind Speed 8 mph ()    
Max Wind Speed 22 mph    
Max Gust Speed 28 mph    
Visibility 5.0 miles    
Events      
T = Trace of Precipitation, MM = Missing Value Source: Averaged Metar Reports

Daily Weather History Graph

Daily Weather History Graph

Search for Another Location

Airport:

Trip Planner

Search our weather history database for the weather conditions in past years. The results will help you decide how hot, cold, wet, or windy it might be!

Date:

Astronomy

Jan. 19, 2013 Rise Set
Actual Time 7:05 AM AST 5:22 PM AST
Civil Twilight 6:38 AM AST 5:49 PM AST
Nautical Twilight 6:08 AM AST 6:19 PM AST
Astronomical Twilight 5:38 AM AST 6:49 PM AST
Moon 11:31 AM AST (1/19) 12:23 AM AST (1/19)
Length of Visible Light 11h 10m
Length of Day
10h 16m
First Quarter, 54% of the Moon is Illuminated
Jan 19
First Quarter
Jan 27
Full
Feb 3
Last Quarter
Feb 10
New
Feb 17
First Quarter

Hourly Weather History & Observations

Time (AST) Temp. Windchill Dew Point Humidity Pressure Visibility Wind Dir Wind Speed Gust Speed Precip Events Conditions
12:55 AM 46.4 °F - 32.0 °F 57% 30.17 in 5.0 mi NNE 2.3 mph - N/A   Haze
1:55 AM 42.8 °F 39.3 °F 32.0 °F 66% 30.19 in 5.0 mi North 5.8 mph - N/A   Haze
2:55 AM 42.8 °F 39.3 °F 32.0 °F 66% 30.18 in 3.7 mi ENE 5.8 mph - N/A   Haze
3:55 AM 42.8 °F 38.0 °F 32.0 °F 66% 30.17 in 3.7 mi ENE 8.1 mph - N/A   Haze
4:55 AM 44.6 °F 40.2 °F 32.0 °F 61% 30.16 in 3.7 mi ENE 8.1 mph - N/A   Haze
5:55 AM 44.6 °F 39.7 °F 32.0 °F 61% 30.17 in 3.7 mi East 9.2 mph - N/A   Haze
6:55 AM 44.6 °F 40.2 °F 32.0 °F 61% 30.17 in 5.0 mi ESE 8.1 mph - N/A   Haze
7:55 AM 46.4 °F 42.9 °F 32.0 °F 57% 30.18 in 3.7 mi East 6.9 mph - N/A   Haze
8:55 AM 48.2 °F - 33.8 °F 58% 30.18 in 3.7 mi ESE 11.5 mph - N/A   Haze
9:55 AM 53.6 °F - 37.4 °F 54% 30.20 in 5.0 mi ESE 11.5 mph - N/A   Haze
10:55 AM 57.2 °F - 39.2 °F 51% 30.19 in 5.0 mi SE 15.0 mph - N/A   Haze
11:55 AM 60.8 °F - 37.4 °F 42% 30.14 in 5.0 mi SE 21.9 mph 26.5 mph N/A   Haze
12:55 PM 62.6 °F - 39.2 °F 42% 30.12 in 5.6 mi SE 15.0 mph 27.6 mph N/A   Haze
1:55 PM 64.4 °F - 39.2 °F 40% 30.09 in 5.6 mi SE 15.0 mph 24.2 mph N/A   Haze
2:55 PM 64.4 °F - 39.2 °F 40% 30.09 in 5.6 mi SE 16.1 mph 21.9 mph N/A   Haze
3:55 PM 64.4 °F - 39.2 °F 40% 30.09 in 6.2 mi ESE 16.1 mph - N/A   Partly Cloudy
4:55 PM 62.6 °F - 41.0 °F 45% 30.09 in 6.2 mi ESE 10.4 mph - N/A   Scattered Clouds
5:55 PM 60.8 °F - 41.0 °F 48% 30.11 in 5.6 mi East 8.1 mph - N/A   Haze
6:55 PM 57.2 °F - 42.8 °F 59% 30.13 in 5.6 mi ESE 3.5 mph - N/A   Haze
7:55 PM 57.2 °F - 42.8 °F 59% 30.11 in 5.6 mi ESE 8.1 mph - N/A   Haze
8:55 PM 59.0 °F - 42.8 °F 55% 30.12 in 5.6 mi ESE 9.2 mph - N/A   Haze
9:55 PM 57.2 °F - 42.8 °F 59% 30.12 in 5.0 mi ESE 10.4 mph - N/A   Haze
10:55 PM 55.4 °F - 42.8 °F 63% 30.11 in 5.0 mi SE 6.9 mph - N/A   Haze
11:55 PM 53.6 °F - 42.8 °F 67% 30.09 in 5.0 mi SE 9.2 mph - N/A   Haze